www.pogodaiklimat.ru

Погода и климат >> Архив погоды >> Швейцария >> Кур


ПОГОДА в Куре

  • Прогноз погоды в Куре
  • Монитор погоды в Куре

АРХИВ ПОГОДЫ в Куре

Время (UTC), дата Ветер
(напр.,м/с)
 
Видим.   Явления Облачность Т
(С)
Тd
(С)
f
(%)
Тe
(С)
Тes
(С)
Комфортность P
(гПа)
Po
(гПа)
Тmin
(С)
Tmax
(С)
R
(мм)
R24
(мм)
S
(см)
01 10.07 С 1
{2}
н/о н/о +12.4 +10.5 88 +13 +13 1017.7 952.7
02 10.07 СВ 1
{4}
н/о н/о +14.4 +8.5 68 +15 +15 1017.3 952.8
03 10.07 СВ 2
{4}
8000 м мгла 4/4 1500 м
[]
+13.6 +8.5 71 +13 +13 1017.6 952.9
04 10.07 СВ 1
{3}
н/о н/о +12.4 +8.7 78 +13 +13 1018.3 953.3
05 10.07 СВ 1
{2}
н/о н/о +12.6 +8.3 75 +13 +13 1018.4 953.4
06 10.07 СВ 3 10 км дымка 8/8 600 м
[]
+13.8 +8.7 71 +13 +13 1018.1 953.4 +11.9
07 10.07 С 3
{5}
н/о н/о +15.3 +9.2 67 +15 +15 1017.8 953.5
08 10.07 СВ 3
{5}
н/о н/о +16.4 +8.6 60 +16 +16 1017.6 953.5
09 10.07 С 3
{6}
10 км мгла 4/4 930 м
[]
+18.1 +9.7 58 +18 +25 1016.8 953.2
10 10.07 СВ 6
{10}
н/о н/о +19.7 +10.2 54 +21 +21 комфорт 1016.0 952.8
11 10.07 СВ 8
{11}
н/о н/о +20.7 +10.2 51 +22 +22 комфорт 1015.5 952.5
12 10.07 СВ 8
{12}
10 км мгла 4/4 800 м
[]
+21.3 +9.8 48 +23 +24 комфорт 1014.8 952.0
13 10.07 СВ 8
{12}
н/о н/о +22.4 +9.4 44 +24 +24 комфорт 1014.3 951.8
14 10.07 СВ 7
{12}
н/о н/о +22.9 +9.6 43 +25 +25 комфорт 1013.9 951.5
15 10.07 СВ 7
{12}
12 км мгла 5/0 2000 м
[]
+23.1 +9.6 42 +25 +27 комфорт 1013.8 951.5
16 10.07 СВ 7
{12}
н/о н/о +23.0 +10.1 44 +25 +25 комфорт 1013.9 951.5
17 10.07 СВ 6
{11}
н/о н/о +22.3 +9.8 45 +24 +24 комфорт 1014.2 951.7
18 10.07 СВ 4 14 км мгла 3/0
[]
+20.2 +9.2 49 +22 +22 комфорт 1015.1 952.0 +23.5
19 10.07 СВ 4
{6}
н/о н/о +18.7 +9.1 54 +19 +19 1015.8 952.4
20 10.07 СВ 3
{6}
н/о н/о +18.1 +8.2 52 +18 +18 1016.6 953.0
21 10.07 СВ 2
{6}
12 км мгла ясно +17.3 +7.7 53 +18 +18 1017.4 953.6
22 10.07 СВ 1
{2}
н/о н/о +14.7 +8.7 67 +15 +15 1018.3 953.8
23 10.07 штиль 0
{2}
н/о н/о +12.6 +9.2 80 +12 +12 1019.0 954.0
00 11.07 ЮЗ 1
{6}
12 км дымка ясно +13.0 +9.4 79 +14 +14 1018.7 953.8
01 11.07 ЮЗ 1
{4}
н/о н/о +12.7 +9.5 81 +13 +13 1018.6 953.6
02 11.07 Ю 2
{4}
н/о н/о +13.1 +9.3 78 +12 +12 1017.8 953.0
03 11.07 ЮЗ 2
{4}
20 км ясно +12.2 +9.2 82 +12 +12 1017.7 952.7
04 11.07 ЮЗ 2
{4}
н/о н/о +12.0 +9.0 82 +11 +11 1017.5 952.5
05 11.07 ЮЗ 3
{5}
н/о н/о +13.5 +9.0 74 +13 +13 1017.3 952.6
06 11.07 Ю 4 15 км 5/5 1000 м
[]
+15.3 +8.9 66 +14 +16 1016.2 952.0 +11.8
07 11.07 Ю 3
{6}
н/о н/о +17.1 +9.1 59 +17 +17 1015.5 951.7
08 11.07 Ю 2
{6}
н/о н/о +18.9 +9.8 55 +20 +20 1014.5 951.2
09 11.07
{6}
15 км 10/10 1410 м
[]
+19.8 +9.9 53 1014.0 950.9
10 11.07 С 3
{5}
н/о н/о +20.3 +10.7 54 +22 +22 комфорт 1013.3 950.4
11 11.07 СВ 6
{9}
н/о н/о +21.3 +11.4 53 +23 +23 комфорт 1012.3 949.7
12 11.07 СВ 8
{13}
18 км 9/9 930 м
[]
+22.5 +9.3 43 +24 +24 комфорт 1011.5 949.2
13 11.07 С 7
{13}
н/о н/о +22.3 +8.8 42 +24 +24 комфорт 1011.6 949.2
14 11.07 С 7
{13}
н/о н/о +21.3 +9.5 47 +23 +23 комфорт 1011.9 949.3
15 11.07 С 8
{13}
17 км 10/0
[]
+20.4 +10.1 52 +22 +22 комфорт 1012.3 949.5
16 11.07 СВ 6
{14}
н/о н/о +19.3 +11.3 60 +20 +20 1013.5 950.3
17 11.07 СВ 5
{13}
н/о н/о +18.3 +12.2 68 +18 +18 1014.9 951.4 0.1
18 11.07 С 2
{14}
12 км слаб. морось 10/0
[]
+18.2 +12.7 70 +19 +19 1015.6 952.1 +22.5 0.2
19 11.07 С 1
{3}
н/о н/о +17.5 +11.8 69 +19 +19 1015.8 952.1
20 11.07 СВ 1
{2}
н/о н/о +15.8 +12.4 80 +17 +17 1016.6 952.5
21 11.07 З 1
{3}
10 км дымка 8/0
[]
+15.2 +12.3 83 +16 +16 1016.9 952.6
22 11.07 ЮЗ 1
{5}
н/о н/о +14.9 +11.3 79 +16 +16 1017.0 952.6
23 11.07 ЮЗ 1
{3}
н/о н/о +14.8 +12.0 83 +16 +16 1016.9 952.5
00 12.07 З 1
{5}
8000 м дымка 10/0 2000 м
[]
+14.7 +12.0 84 +16 +16 1016.5 952.1
01 12.07 ЮВ 1
{2}
н/о н/о +15.3 +11.7 79 +17 +17 1016.0 951.8
02 12.07 Ю 2
{3}
н/о н/о +15.3 +11.8 80 +15 +15 1015.7 951.5
03 12.07 ЮЗ 1
{3}
6000 м дымка 10/10 720 м
[]
+15.3 +12.0 81 +17 +17 1015.8 951.6
04 12.07 Ю 2
{4}
н/о н/о +15.1 +12.1 82 +15 +15 1016.0 951.8
05 12.07 ЮЗ 3
{6}
н/о н/о +15.3 +11.7 79 +15 +15 1015.9 951.7
06 12.07 ЮЗ 2
{6}
10 км дымка 9/9 1500 м
[]
+16.1 +12.0 77 +16 +17 1015.7 951.7 +14.5
07 12.07 Ю 3
{6}
н/о н/о +17.6 +11.7 68 +18 +18 1014.9 951.3
08 12.07 З 1
{6}
н/о н/о +17.6 +11.7 68 +19 +19 1014.7 951.1
09 12.07 СВ 5
{9}
10 км мгла 9/0 2000 м
[]
+17.9 +12.3 70 +17 +21 1014.7 951.2
10 12.07 С 3
{10}
н/о н/о +17.3 +12.2 72 +17 +17 1014.8 951.1
11 12.07 СВ 5
{12}
н/о н/о +16.7 +12.1 74 +16 +16 1015.5 951.6 0.2
12 12.07 СВ 1
{13}
10 км слаб. дождь 10/10 210 м
[]
+15.3 +13.3 88 +16 +16 1016.9 952.6 0.9
13 12.07 С 3
{4}
н/о н/о +17.6 +14.6 83 +18 +18 1015.6 951.9 0.5
14 12.07 С 4
{5}
н/о н/о +18.4 +13.7 74 +19 +19 1014.5 951.1
15 12.07 ЮЗ 2
{7}
15 км {дождь} 9/9 330 м
[]
+18.2 +13.5 74 +19 +20 1014.0 950.6
16 12.07 СВ 1
{4}
н/о н/о +18.5 +13.1 71 +20 +20 1013.0 949.7
17 12.07 С 1
{2}
н/о н/о +17.7 +14.9 84 +19 +19 1013.0 949.5 0.1
18 12.07 СВ 2
{7}
10 км слаб. морось 10/10 1500 м
[]
+16.8 +15.3 91 +17 +17 1013.1 949.4 +18.8 0.4
19 12.07 СЗ 1
{3}
н/о н/о +16.1 +14.8 92 +17 +17 1013.4 949.5 0.2
20 12.07 ЮВ 1
{4}
н/о н/о +16.5 +15.1 91 +17 +17 1014.2 950.4 0.6
21 12.07 СВ 2
{5}
5000 м слаб. морось 10/10 420 м
[]
+16.0 +14.7 92 +16 +16 1014.9 950.9 0.7
22 12.07 ЮЗ 1
{3}
н/о н/о +15.9 +14.9 94 +17 +17 1015.5 951.5 2
23 12.07 ЮЗ 2
{6}
н/о н/о +15.8 +14.0 89 +16 +16 1015.5 951.4 2
00 13.07 Ю 2
{6}
8000 м слаб. дождь 10/10 420 м
[]
+15.5 +14.5 94 +16 +16 1015.3 951.2 0.7
01 13.07 Ю 3
{5}
н/о н/о +15.3 +13.9 91 +15 +15 1014.5 950.4 0.1
02 13.07 С 3
{5}
н/о н/о +15.3 +14.3 94 +15 +15 1014.7 950.6
03 13.07 С 6
{12}
8000 м дымка 10/10 930 м
[]
+14.0 +12.2 89 +12 +12 1015.8 951.3 3
04 13.07 СВ 3
{9}
н/о н/о +13.8 +12.2 90 +13 +13 1016.7 952.1 0.3
05 13.07 В 2
{5}
н/о н/о +13.7 +12.3 91 +13 +13 1016.8 952.2 0.3
06 13.07 СВ 1
{12}
18 км {дождь} 10/10 30 м
[]
+14.1 +12.5 90 +14 +14 1017.1 952.6 +13.7 0.2
07 13.07 СВ 2
{5}
н/о н/о +14.7 +12.8 88 +14 +14 1017.2 952.8
08 13.07 СВ 4
{6}
н/о н/о +15.5 +13.2 86 +15 +15 1017.2 953.0
09 13.07 СВ 5
{8}
18 км 8/8 500 м
[]
+17.1 +12.8 76 +16 +18 1016.7 952.9
10 13.07 СВ 4
{8}
н/о н/о +18.4 +10.3 59 +19 +19 1016.5 953.0
11 13.07 СВ 5
{8}
н/о н/о +19.4 +10.5 56 +20 +20 1016.3 953.0
12 13.07 СВ 5
{9}
20 км 8/8 1230 м
[]
+20.5 +9.1 48 +22 +24 комфорт 1015.8 952.8
13 13.07 СВ 6
{9}
н/о н/о +20.0 +9.2 50 +21 +21 комфорт 1015.4 952.3
14 13.07 СВ 6
{10}
н/о н/о +20.1 +9.1 49 +21 +21 комфорт 1015.4 952.3
15 13.07 СВ 5
{10}
18 км 8/8 1500 м
[]
+20.0 +9.1 49 +21 +22 комфорт 1015.5 952.4
16 13.07
{8}
н/о н/о +20.6 +10.3 52 1015.1 952.1
17 13.07 СВ 4
{9}
н/о н/о +19.4 +11.3 59 +21 +21 комфорт 1015.3 952.1
18 13.07 СВ 3
{10}
12 км мгла 8/8 1230 м
[]
+18.3 +11.4 64 +19 +19 1015.8 952.3 +21.1
19 13.07 СВ 3
{5}
н/о н/о +17.7 +10.9 64 +18 +18 1016.2 952.5
20 13.07 СВ 3
{6}
н/о н/о +17.0 +11.0 68 +17 +17 1016.9 953.0
21 13.07 СВ 2
{6}
18 км 5/5 1500 м
[]
+16.5 +11.0 70 +17 +17 1017.3 953.3
22 13.07 штиль 0
{3}
н/о н/о +15.1 +11.3 78 +15 +15 1017.8 953.4
23 13.07 ЮЗ 1
{2}
н/о н/о +15.0 +11.2 78 +16 +16 1017.8 953.4
00 14.07 ЮЗ 1
{6}
н/о н/о +13.8 +11.4 85 +15 +15 1018.1 953.4
01 14.07 штиль 0
{2}
н/о н/о +13.0 +11.1 88 +12 +12 1017.8 953.0
02 14.07 штиль 0
{1}
н/о н/о +11.7 +10.3 91 +11 +11 1017.7 952.6
03 14.07 Ю 1
{2}
18 км 5/5 1500 м
[]
+11.1 +9.5 90 +12 +12 1017.8 952.5
04 14.07 ЮЗ 1
{2}
н/о н/о +11.3 +10.0 92 +12 +12 1017.7 952.5
05 14.07 штиль 0
{2}
н/о н/о +11.6 +10.0 90 +11 +11 1017.3 952.2
06 14.07 Ю 1
{2}
н/о н/о +13.8 +9.7 76 +14 +17 1016.5 951.9 +11.0
07 14.07 Ю 1
{4}
н/о н/о +15.8 +9.6 67 +17 +17 1015.5 951.4
08 14.07 В 1
{3}
н/о н/о +18.0 +9.4 57 +19 +19 1014.5 951.0
09 14.07 С 2
{4}
17 км 4/4 1500 м
[]
+20.6 +11.4 56 +23 +31 комфорт 1013.4 950.5
10 14.07 СВ 5
{9}
н/о н/о +20.9 +10.7 52 +23 +23 комфорт 1012.7 949.9
11 14.07 СВ 6
{9}
н/о н/о +23.1 +11.1 47 +25 +25 комфорт 1011.5 949.3
12 14.07 СВ 7
{12}
25 км 4/4 1320 м
[]
+23.3 +10.2 43 +25 +28 комфорт 1010.5 948.4
13 14.07 СВ 8
{12}
н/о н/о +22.6 +10.3 46 +24 +24 комфорт 1010.0 947.8
14 14.07 СВ 8
{13}
н/о н/о +23.5 +10.3 43 +25 +25 комфорт 1009.2 947.2
15 14.07 СВ 6
{13}
18 км 8/8 1230 м
[]
+22.1 +9.9 46 +24 +24 комфорт 1009.6 947.3
16 14.07 СВ 6
{12}
н/о н/о +21.9 +9.9 46 +23 +23 комфорт 1009.4 947.1
17 14.07 СВ 7
{12}
н/о н/о +21.2 +9.9 48 +23 +23 комфорт 1009.8 947.3
18 14.07 С 6
{13}
8000 м мгла 5/5 1500 м
[]
+18.0 +10.5 62 +18 +18 1011.4 948.1 +23.9
19 14.07 С 3
{10}
н/о н/о +15.9 +12.8 82 +15 +15 1013.4 949.5 0.3
20 14.07 СВ 3
{10}
н/о н/о +14.7 +13.1 90 +14 +14 1014.3 950.1 1
21 14.07 В 2
{10}
4000 м дымка {дождь} 10/10 420 м
[]
+14.8 +13.1 90 +15 +15 1014.8 950.6 0.6
22 14.07 С 2
{3}
н/о н/о +14.4 +13.6 95 +14 +14 1015.4 951.0 2
23 14.07 В 2
{4}
н/о н/о +14.4 +13.0 91 +14 +14 1014.7 950.4 1
00 15.07 С 1
{10}
н/о {дождь} н/о +14.3 +13.5 95 +15 +15 1014.4 950.1 0.5
01 15.07 З 1
{3}
н/о н/о +13.8 +12.9 94 +15 +15 1014.3 949.9 0.3
02 15.07 С 1
{2}
н/о н/о +13.7 +13.0 96 +14 +14 1014.4 949.9 2
03 15.07 СЗ 1
{3}
н/о н/о +13.3 +12.6 96 +13 +13 1014.2 949.7 2
04 15.07 штиль 0
{2}
н/о н/о +13.3 +12.7 96 +13 +13 1014.0 949.5 1
05 15.07 ЮЗ 1
{1}
н/о н/о +13.4 +12.5 94 +14 +14 1014.1 949.6
06 15.07 З 1
{3}
8000 м дымка {дождь} 10/10 120 м
[]
+13.7 +12.7 94 +14 +14 1014.5 950.0 +13.2
07 15.07 С 1
{2}
н/о н/о +14.2 +13.2 94 +14 +14 1014.7 950.3
08 15.07 С 1
{2}
н/о н/о +14.1 +12.3 89 +14 +14 1014.9 950.5
09 15.07 С 2
{3}
8000 м дымка {дождь} 9/9 120 м
[]
+17.0 +13.7 81 +17 +19 1014.3 950.6
10 15.07 С 3
{5}
н/о н/о +18.4 +13.5 73 +19 +19 1013.7 950.3
11 15.07 СВ 3
{6}
н/о н/о +19.1 +11.9 63 +20 +20 1013.2 950.0
12 15.07 СВ 4
{8}
10 км мгла 5/5 930 м
[]
+20.2 +12.2 60 +22 +28 комфорт 1012.5 949.6
13 15.07 СВ 7
{11}
н/о н/о +20.7 +12.5 59 +23 +23 комфорт 1012.2 949.4
14 15.07 СВ 6
{11}
н/о н/о +22.2 +13.1 56 +25 +25 комфорт 1011.7 949.3
15 15.07 СВ 6
{12}
13 км мгла 5/5 1500 м
[]
+21.9 +12.2 54 +24 +26 комфорт 1011.6 949.1
16 15.07 СВ 7
{13}
н/о н/о +21.1 +12.1 56 +23 +23 комфорт 1011.9 949.2
17 15.07 СВ 6
{12}
н/о н/о +20.4 +12.7 61 +22 +22 комфорт 1012.4 949.6
18 15.07 СВ 5
{13}
13 км мгла 8/8 1500 м
[]
+19.0 +11.8 63 +20 +20 1013.6 950.4 +23.1
19 15.07 СВ 3
{8}
н/о н/о +17.6 +13.2 75 +18 +18 1014.7 951.1
20 15.07 С 1
{6}
н/о н/о +16.8 +13.8 82 +18 +18 1015.4 951.6
21 15.07 С 1
{8}
н/о н/о +15.7 +13.6 87 +17 +17 1016.3 952.2
22 15.07 СВ 1
{2}
н/о н/о +14.8 +13.2 90 +16 +16 1017.2 952.8
23 15.07 штиль 0
{1}
н/о н/о +14.0 +12.7 92 +14 +14 1017.5 952.9
00 16.07 штиль 0
{8}
н/о н/о +14.1 +12.8 92 +14 +14 1017.6 953.0
01 16.07 З 1
{2}
н/о н/о +14.6 +12.9 90 +16 +16 1017.8 953.3
02 16.07 З 1
{1}
н/о н/о +15.1 +13.2 88 +16 +16 1017.8 953.4
03 16.07 З 1
{2}
12 км дымка 9/9 1500 м
[]
+15.0 +12.8 87 +15 +15 1017.8 953.4
04 16.07 Ю 1
{2}
н/о н/о +15.0 +11.4 79 +16 +16 1017.8 953.4
05 16.07 З 1
{2}
н/о н/о +14.6 +12.7 88 +16 +16 1017.9 953.4
06 16.07 Ю 2
{3}
14 км дымка 4/0 2000 м
[]
+16.1 +11.8 76 +16 +19 1017.7 953.6 +13.5
07 16.07 ЮВ 1
{3}
н/о н/о +18.1 +11.9 67 +19 +19 1016.9 953.3
08 16.07 В 1
{3}
н/о н/о +19.9 +11.9 60 +23 +23 комфорт 1016.2 953.0
09 16.07 Ю 1
{3}
14 км мгла 4/4 1500 м
[]
+21.5 +10.5 50 +23 +33 комфорт 1015.2 952.4
10 16.07 СВ 3
{5}
н/о н/о +23.0 +10.4 45 +25 +25 комфорт 1014.6 952.2
11 16.07 С 5
{8}
н/о н/о +24.7 +11.4 43 +26 +26 жарко 1013.8 951.8
12 16.07 С 6
{10}
18 км 4/4 1320 м
[]
+25.0 +10.0 39 +26 +31 жарко 1013.3 951.4
13 16.07 С 6
{9}
н/о н/о +25.9 +11.0 39 +27 +27 жарко 1012.7 951.0
14 16.07 С 6
{10}
н/о н/о +26.1 +11.4 40 +27 +27 жарко 1012.2 950.6
15 16.07 С 7
{11}
20 км 3/3 1500 м
[]
+25.7 +11.2 40 +27 +29 жарко 1012.2 950.5
17 16.07 СВ 6
{10}
н/о н/о +24.0 +12.4 48 +26 +26 жарко 1012.4 950.3
18 16.07 СВ 4
{11}
14 км мгла 3/3 1320 м
[]
+22.4 +12.5 53 +25 +25 комфорт 1013.1 950.6 +26.6
19 16.07 С 3
{7}
н/о н/о +21.3 +11.7 54 +23 +23 комфорт 1013.7 951.0
20 16.07 СВ 2
{6}
н/о н/о +20.2 +10.7 54 +22 +22 комфорт 1014.6 951.6
21 16.07 СЗ 1
{7}
5000 м мгла ясно +17.6 +11.9 69 +19 +19 1015.7 952.0
22 16.07 штиль 0
{1}
н/о н/о +16.2 +12.6 79 +16 +16 1016.3 952.3
23 16.07 штиль 0
{1}
н/о н/о +14.9 +11.8 82 +15 +15 1017.0 952.6
00 17.07 ЮЗ 1
{7}
4000 м мгла ясно +14.9 +11.6 81 +16 +16 1017.1 952.7

 

Местоположение метеостанции Кур (Швейцария): широта 46.87 долгота 9.53 высота над уровнем моря 556 м.

В архиве по умолчанию представлена погода в Куре за последнюю неделю. Архивные данные за месяц целиком и за предыдущие месяцы, начиная с января 2011 года, Вы можете получить, выбрав интересующий диапазон дат из раскрывающегося списка и нажав кнопку "Ввод!".


*Определитесь, кто Вы:
робот инопланетянин человек

Внимание! Время в таблицах - всемирное. Для получения местного времени необходимо прибавить поправку, которая равна 1 ч.

Смотрите также архив погоды в соседних городах и на ближайших метеорологических станциях:

Погода в Фальбелле (Швейцария) (13 км)
Погода в Арозе (Швейцария) (15 км)
Погода в Бад-Рагаце (Швейцария) (16 км)
Погода в Ширсе (Швейцария) (16 км)
Погода на Вайссфлуйохе (Швейцария) (23 км)
Погода в Давосе (Швейцария) (25 км)
Погода в Иланце (Швейцария) (26 км)
Погода на Крап Мазегне (Швейцария) (27 км)
Погода в Эльме (Швейцария) (27 км)
Погода в Вадуце (Лихтенштейн) (29 км)

Пояснения к столбцам:

Ветер - указаны скорость ветра в м/с - средняя за 10 мин, порывы в срок и между сроками (в фигурных скобках) и направление, откуда дует ветер: С - северный, СВ - северо-восточный, В - восточный, ЮВ - юго-восточный, Ю - южный, ЮЗ - юго-западный, З - западный, СЗ - северо-западный.
Видимость - горизонтальная дальность видимости в метрах или километрах. При видимости от 1 до 10 км при отсутствии осадков обычно наблюдается дымка, при ухудшении видимости до 1 км и менее - туман. В сухую погоду видимость может ухудшаться дымом, пылью или мглою.
Явления - указаны атмосферные явления, наблюдавшиеся в срок или в последний час перед сроком; фигурными скобками обозначены явления, наблюдавшиеся между сроками (за 1-3 часа до срока); квадратными скобками обозначены град или гололедные отложения с указанием их диаметра в мм.
Облачность - указаны через наклонную черту общая и нижняя облачность в баллах и высота нижней границы облаков в метрах; квадратными скобками обозначены формы облаков: Ci - перистые, Cs - перисто-слоистые, Cc - перисто-кучевые, Ac - высококучевые, As - высокослоистые, Sc - слоисто-кучевые, Ns - слоисто-дождевые, Cu - кучевые, Cb - кучево-дождевые. Подробнее классификацию облаков см. в Атласе облаков (PDF).
T - Температура воздуха - температура, измеренная на высоте 2 м над землей.
Td - Температура точки росы - температура, при понижении до которой содержащийся в воздухе водяной пар достигнет насыщения.
f - Относительная влажность воздуха - влажноcть воздуха, измеренная на высоте 2 м над землей.
Te - Эффективная температура - температура, которую ощущает одетый по сезону человек в тени. Характеристика душности погоды. При расчете учитывается влияние влажности воздуха и скорости ветра на теплоощущения человека.
Tes - Эффективная температура на солнце - температура, которую ощущает человек, с поправкой на солнечный нагрев. Характеристика знойности погоды. Зависит от высоты солнца над горизонтом, облачности и скорости ветра. Ночью, в пасмурную погоду, а также при ветре 12 м/с и более поправка равна нулю.
P - Атмосферное давление - приведенное к уровню моря атмосферное давление.
Po - Атмосферное давление - измеренное на уровне метеостанции атмосферное давление.
Tmin - Минимальная температура - минимум температуры воздуха на высоте 2 м над землей.
Tmax - Максимальная температура - максимум температуры воздуха на высоте 2 м над землей.
R - Количество осадков - Количество выпавших осадков за период времени, мм. При наведении курсора мыши на число - период времени, за который выпало указанное количество осадков.
R24 - Количество осадков - Количество выпавших осадков за 24 часа, мм.
S - Снежный покров - Высота снежного покрова, см. При наведении курсора мыши на число - состояние снежного покрова и степень покрытия местности в баллах.